Tracking 22881 objects as of 20-Apr-2021
HD Live streaming from Space Station
objects crossing your sky now

STARLINK-1669

Track STARLINK-1669 now!
10-day predictions
STARLINK-1669 is classified as:


NORAD ID: 47624
Int'l Code: 2021-012E
Perigee: 417.7 km
Apogee: 419.4 km
Inclination: 53.0 °
Period: 92.8 minutes
Semi major axis: 6789 km
RCS: Unknown
Launch date: February 16, 2021
Source: United States (US)
Launch site: AIR FORCE EASTERN TEST RANGE (AFETR)
aabbcc
Your satellite tracking list
Your tracking list is empty




NASA's NSSDC Master Catalog

Two Line Element Set (TLE):
1 47624U 21012E   21109.58334491 -.00419401  00000-0 -72663-2 0  9996
2 47624  53.0470 152.4711 0001240  76.6122 148.0501 15.51806487  1764
Source of the keplerian elements: AFSPC